IRIDIUM 32 [+]

Last updated on Wed Feb 06 2019 03:04:34 GMT+0000 (Coordinated Universal Time)

1 24945U 97051B 19036.55522041 -.00000061 00000-0 -28826-4 0 9998 2 24945 86.3933 36.9531 0001955 71.0041 289.1367 14.34214687120186
UTC large
Height (km)
Speed (km/s)
/
Latitude / Longitude
Inclination (degrees)
Orbital Period (minutes)
Azimuth
Elevation
Range (km)
Doppler Factor

Next 0 passes for location: London (51.5072 / 0.1276)

Sorry there are no passes over London.